Chios, Greece

6:39 PM EEST on May 28, 2017 (GMT +0300)
Chios

Weather History for LGHI - August, 2013

Change the Weather History Date:

Tuesday, August 27, 2013

  Actual Average (LTBL) Record (LTBL)
Temperature  
Mean Temperature 76 °F -  
Max Temperature 87 °F 89 °F 100 °F (2004)
Min Temperature 64 °F 66 °F 60 °F (1997)
Cooling Degree Days 10    
Growing Degree Days 26 (Base 50)    
Moisture  
Dew Point 61 °F    
Average Humidity 57    
Maximum Humidity 73    
Minimum Humidity 33    
Precipitation  
Precipitation 0.00 in - - ()
Sea Level Pressure  
Sea Level Pressure 29.81 in    
Wind  
Wind Speed 2 mph ()    
Max Wind Speed 9 mph    
Max Gust Speed -    
Averages and records for this station are not official NWS values.
T = Trace of Precipitation, MM = Missing Value Source: Averaged Metar Reports

Daily Weather History Graph

Daily Weather History Graph

Search for Another Location

Airport or City:

Trip Planner

Search our weather history database for the weather conditions in past years. The results will help you decide how hot, cold, wet, or windy it might be!

Date:

Astronomy

Aug. 27, 2013 Rise Set
Actual Time 6:40 AM EEST 7:52 PM EEST
Civil Twilight 6:13 AM EEST 8:20 PM EEST
Nautical Twilight 5:40 AM EEST 8:52 PM EEST
Astronomical Twilight 5:06 AM EEST 9:26 PM EEST
Moon 11:38 PM EEST (8/27) 1:14 PM EEST (8/27)
Length of Visible Light 14h 06m
Length of Day
13h 12m
Waning Gibbous, 60% of the Moon is Illuminated
Aug 27
Waning Gibbous
Aug 28
Last Quarter
Sep 5
New
Sep 12
First Quarter
Sep 19
Full

Hourly Weather History & Observations

Time (EEST) Temp. Heat Index Dew Point Humidity Pressure Visibility Wind Dir Wind Speed Gust Speed Precip Events Conditions
2:50 AM 68.0 °F - 53.6 °F 60% 29.83 in - SSW 2.3 mph - N/A   Clear
4:50 AM 64.4 °F - 53.6 °F 68% 29.83 in - Variable 1.2 mph - N/A   Clear
5:50 AM 64.4 °F - 55.4 °F 73% 29.83 in - Calm Calm - N/A   Clear
6:50 AM 64.4 °F - 51.8 °F 64% 29.83 in - Calm Calm - N/A   Clear
7:50 AM 68.0 °F - 55.4 °F 64% 29.83 in - Calm Calm - N/A   Clear
8:50 AM 75.2 °F - 64.4 °F 69% 29.83 in - Calm Calm - N/A   Clear
9:50 AM 80.6 °F 83.2 °F 68.0 °F 65% 29.83 in - Calm Calm - N/A   Clear
10:50 AM 82.4 °F 83.4 °F 62.6 °F 51% 29.86 in - NNE 6.9 mph - N/A   Clear
11:50 AM 84.2 °F 85.0 °F 62.6 °F 48% 29.83 in - NE 5.8 mph - N/A   Clear
12:50 PM 84.2 °F 85.0 °F 62.6 °F 48% 29.83 in - NNE 4.6 mph - N/A   Clear
1:50 PM 87.8 °F 86.1 °F 55.4 °F 33% 29.83 in - NNE 6.9 mph - N/A   Clear
2:50 PM 86.0 °F 84.9 °F 57.2 °F 37% 29.80 in - NE 9.2 mph - N/A   Clear
3:50 PM 84.2 °F 85.6 °F 64.4 °F 51% 29.80 in - North 9.2 mph - N/A   Clear
4:50 PM 84.2 °F 86.6 °F 66.2 °F 55% 29.77 in - North 6.9 mph - N/A   Clear
5:50 PM 84.2 °F 85.6 °F 64.4 °F 51% 29.77 in - North 5.8 mph - N/A   Clear
6:50 PM 84.2 °F 85.6 °F 64.4 °F 51% 29.77 in - NNE 1.2 mph - N/A   Clear
7:50 PM 82.4 °F 83.9 °F 64.4 °F 54% 29.77 in - South 2.3 mph - N/A   Clear
8:50 PM 78.8 °F - 62.6 °F 57% 29.77 in - SW 1.2 mph - N/A   Clear
9:50 PM 77.0 °F - 62.6 °F 61% 29.80 in - Calm Calm - N/A   Clear
10:50 PM 73.4 °F - 60.8 °F 65% 29.80 in - Calm Calm - N/A   Clear
11:50 PM 71.6 °F - 59.0 °F 64% 29.80 in - Calm Calm - N/A   Clear